Regional Weather Roundup
Issued by NWS Newport/Morehead, NC

Current Version | Previous Version | Graphics & Text | Print | Product List | Glossary On
Versions: 1 2 3 4 5 6 7 8 9 10 11 12 13 14 15 16 17 18 19 20 21 22 23 24 25 26 27 28 29 30 31 32 33 34 35 36 37 38 39 40 41 42 43 44 45 46 47 48 49 50
000 ASUS42 KMHX 211014 RWRMHX WEATHER ROUNDUP FOR EASTERN NORTH CAROLINA NATIONAL WEATHER SERVICE NEWPORT/MOREHEAD CITY NC 600 AM EDT FRI JUL 21 2017 NOTE: "FAIR" INDICATES FEW OR NO CLOUDS BELOW 12,000 FEET WITH NO SIGNIFICANT WEATHER AND/OR OBSTRUCTIONS TO VISIBILITY NCZ015>017-031-032-045>047-102-103-211100- NORTH COAST CITY SKY/WX TMP DP RH WIND PRES REMARKS EDENTON CLEAR 80 75 86 CALM 29.98R ELIZABETH CITY CLEAR 76 75 97 SW3 29.96S KITTY HAWK MOSUNNY 77 73 85 CALM 29.96S MANTEO PTCLDY 77 73 88 W6 29.98S $$ NCZ045>047-081-094-103-104-211100- CENTRAL COAST CITY SKY/WX TMP DP RH WIND PRES REMARKS FRISCO PTCLDY 78 74 87 SW5 29.98S $$ NCZ095-097-098-100-101-211100- SOUTHERN COAST CITY SKY/WX TMP DP RH WIND PRES REMARKS BEAUFORT PTCLDY 80 78 94 SW7 29.99R CEDAR ISLAND NOT AVBL JACKSONVILLE CLEAR 76 76 100 SW7 29.99R PINEY ISLAND MOSUNNY N/A N/A N/A SW6 29.98S WILMINGTON CLEAR 77 76 96 SW7 30.00R $$ NCZ011>013-027>030-043-044-078>080-089-090>093-098-211100- COASTAL PLAIN CITY SKY/WX TMP DP RH WIND PRES REMARKS AHOSKIE N/A 73 73 98 CALM 29.96S CLINTON CLEAR 74 74 100 CALM 29.99S ELIZABETHTOWN NOT AVBL GOLDSBORO CLEAR 75 75 100 SW5 29.97S GREENVILLE CLEAR 75 73 94 W3 30.00R HAVELOCK CLEAR 75 73 93 S5 30.00R KENANSVILLE CLEAR 73 73 100 CALM 29.99R FOG KINSTON CLEAR 75 74 96 SW5 29.99S NEW BERN CLEAR 75 75 100 SW6 29.99S RICHLANDS MOCLDY 73 73 100 S5 30.00R FOG ROCKY MOUNT CLEAR 75 75 100 S5 29.97S WASHINGTON CLEAR 75 73 94 SW6 29.98S WHITEVILLE CLEAR 74 73 93 CALM 30.00S $$ AMZ130-135-150-152-154-156-158-170-250-252-270-ANZ085-086-088-633-658-670-211100- MARINE OBSERVATIONS STATION/POSITION TIME TEMP WIND PRES WAVE SWELL AIR SEA DIR/SP/G HT/PER HT/PER (UTC) (F) (DEG/KT/KT) (MB) (FT/S) (FT/S) CHESAPEAKE LIGHT NOT AVBL 64 E VA BEACH 0950 80 80 240/ 10/ 12 1014.9 3/ 4 2/ 8 DUCK 0948 80 59 230/ 9/ 12 1014.2 2 E DUCK 1000 63 N/A 2/15 2/15 OREGON INLET 0948 240/ 10/ 12 N/A 13E OREGON INLT 0948 78 N/A 2/13 2/13 HATTERAS CG 0948 78 79 230/ 5/ 7 1015.1 DIAMOND BUOY 0950 82 84 260/ 12/ 14 1015.2 3/ 4 2/ 8 CAPE LOOKOUT 1000 80 250/ 9/ 11 1015.4 BEAUFORT LAB 0948 80 80 250/ 4/ 7 1015.0 30 SE NEW RVR IN 0908 80 82 260/ 10/ 14 1015.3 30 SE NEW RVR IN 0943 82 N/A 3/12 2/12 27 SE WRIGHTSVLE 0908 81 81 230/ 10/ 14 1015.2 5 SE WRIGHTSVLE 0908 80 81 250/ 8/ 12 1015.3 225 S CAPE HAT 0950 81 83 200/ 8/ 10 1017.3 3/ 8 3/ 8 41 SE CHARLESTON 1000 82 83 220/ 10/ 12 1015.8 $$

USA.gov is the U.S. government's official web portal to all federal, state and local government web resources and services.